#timestamp,LO_Frequency,Hit,StdDev 
1553284815.7,286047000.5,N
1553284835.6,286047002.4,N
1553284855.4,286047002.4,N
1553284875.3,286047002.8,N
1553284895.1,286047002.6,N
1553284896.0,286047002.6,N
1553284915.8,286047002.0,N
1553284935.7,286047005.9,Y
1553284955.5,286047002.2,P
1553284975.4,286047002.6,P
1553284995.2,286047000.4,N
1553285015.0,286047000.4,N
1553285015.9,286047000.4,N
1553285035.8,286047000.9,N
1553285055.6,286047000.8,N
1553285075.4,286047000.9,N
1553285095.3,286047000.6,N
1553285115.1,286047001.2,N
1553285135.9,286046999.7,N
1553285155.7,286046998.8,N
1553285175.5,286046997.0,Y
1553285195.4,286046997.9,P
1553285215.2,286046997.5,N
1553285235.0,286046996.9,N
1553285235.9,286046996.9,N
1553285255.8,286046999.6,N
1553285275.6,286046995.2,Y
1553285295.5,286046996.6,P
1553285315.3,286046998.8,N
1553285335.1,286046999.3,N
1553285355.9,286047001.2,N
1553285375.7,286047000.6,N
1553285395.5,286046999.4,N
1553285415.4,286046998.6,N
1553285435.2,286047000.5,N
1553285455.1,286047001.5,N
1553285456.0,286047001.5,N
1553285475.8,286047001.3,N
1553285495.6,286047004.4,N
1553285515.5,286047004.9,N
1553285535.3,286047005.1,N
1553285555.2,286047004.8,N
1553285575.9,286047009.1,Y
1553285595.7,286047008.4,P
1553285615.6,286047008.4,N
1553285635.4,286047006.5,N
1553285655.2,286047007.2,N
1553285675.1,286047007.3,N
1553285676.0,286047007.3,N
1553285695.8,286047005.1,N
1553285715.7,286047007.4,Y
1553285735.5,286047003.5,P
1553285755.3,286047005.6,P
1553285775.2,286047003.0,N
1553285795.0,286047003.5,N
1553285795.9,286047003.5,N
1553285815.8,286047005.9,Y
1553285835.6,286046998.8,P
1553285855.4,286046996.6,N
1553285875.3,286046999.5,N
1553285895.1,286047000.7,N
1553285915.9,286047000.1,N
1553285935.7,286046999.0,N
1553285955.5,286046999.6,N
1553285975.4,286046999.2,N
1553285995.2,286046998.5,N
1553286015.0,286046998.9,N
1553286015.9,286046998.9,N
1553286035.8,286047001.2,N
1553286055.6,286046996.6,N
1553286075.5,286046999.6,N
1553286095.3,286047000.1,N
1553286115.1,286047004.3,N
1553286135.9,286047001.6,N
1553286155.7,286047001.9,N
1553286175.5,286047000.8,N
1553286195.4,286046994.9,N
1553286215.2,286046995.3,N
1553286235.1,286046997.6,N
1553286236.0,286046997.6,N
1553286255.8,286046999.3,N
1553286275.6,286046998.7,N
1553286295.5,286046996.6,N
1553286315.3,286046998.7,N
1553286335.1,286046997.8,N
1553286355.9,286046996.9,N
1553286375.7,286046999.1,N
1553286395.6,286047000.6,N
1553286415.4,286047001.0,N
1553286435.2,286047004.4,N
1553286455.1,286047001.4,N
1553286456.0,286047001.4,N
1553286475.8,286047005.6,N
1553286495.6,286047005.0,N
1553286515.5,286047006.0,N
1553286535.3,286047005.5,N
1553286555.2,286047004.7,N
1553286575.9,286047003.2,N
1553286595.7,286046999.8,N
1553286615.6,286047000.5,N
1553286635.4,286046998.5,N
1553286655.2,286046999.1,N
1553286675.1,286046998.4,N
1553286676.0,286046998.4,N
1553286695.8,286047000.9,N
1553286715.7,286047001.7,N
1553286735.5,286047002.2,N
1553286755.3,286047000.9,N
1553286775.2,286046998.3,N
1553286795.0,286046998.9,N
1553286795.9,286046998.9,N
1553286815.8,286046997.4,N
1553286835.6,286046997.5,N
1553286855.4,286046994.9,N
1553286875.3,286046999.5,N
1553286895.1,286046996.8,N
1553286915.8,286046995.2,N
1553286935.7,286046993.5,N
1553286955.5,286046996.4,N
1553286975.4,286046994.1,N
1553286995.2,286046993.9,N
1553287015.0,286046995.2,N
1553287015.9,286046995.2,N
1553287035.8,286046995.5,N
1553287055.6,286046995.2,N
1553287075.5,286046998.7,N
1553287095.3,286047001.9,N
1553287115.1,286047004.2,N
1553287135.9,286047003.4,N
1553287155.7,286047004.1,N
1553287175.5,286047005.8,N
1553287195.4,286047006.0,N
1553287215.2,286047005.2,N
1553287235.1,286047007.2,N
1553287236.0,286047007.2,N
1553287255.8,286047007.6,N
1553287275.6,286047003.3,N
1553287295.5,286047005.6,N
1553287315.3,286047003.0,N
1553287335.1,286047004.2,N
1553287355.9,286047004.2,N
1553287375.7,286047001.4,N
1553287395.6,286047003.3,N
1553287415.4,286047006.0,N
1553287435.2,286047007.3,N
1553287455.1,286047008.0,N
1553287456.0,286047008.0,N
1553287475.8,286047006.8,N
1553287495.6,286047008.0,N
1553287515.5,286047007.7,N
1553287535.3,286047010.5,N
1553287555.2,286047010.3,N
1553287575.9,286047012.0,Y
1553287595.7,286047005.4,P
1553287615.6,286047005.0,P
1553287635.4,286047005.2,P
1553287655.3,286047005.1,Y
1553287675.1,286046998.7,P
1553287676.0,286046998.7,N
1553287695.8,286046998.4,N
1553287715.7,286046999.1,N
1553287735.5,286046996.7,N
1553287755.3,286046999.6,N
1553287775.2,286046998.1,N
1553287795.0,286046997.4,N
1553287795.9,286046997.4,N
1553287815.8,286046997.5,N
1553287835.6,286046995.3,N
1553287855.4,286046995.1,N
1553287875.3,286046991.8,Y
1553287895.1,286046995.5,P
1553287915.8,286047011.9,P
1553287935.7,286046994.0,N
1553287955.5,286046991.8,N
1553287975.4,286046994.2,N
1553287995.2,286046994.5,N
1553288015.0,286046994.7,N
1553288015.9,286046994.7,N
1553288035.8,286046996.2,N
1553288055.6,286046995.6,N
1553288075.4,286046996.5,N
1553288095.3,286046997.8,N
1553288115.1,286046999.2,N
1553288135.9,286047000.6,N
1553288155.7,286047000.9,N
1553288175.5,286046998.5,N
1553288195.4,286047001.2,N
1553288215.2,286047000.2,N
1553288235.0,286047000.6,N
1553288236.0,286047000.6,N
1553288255.8,286047001.0,N
1553288275.6,286047001.0,N
1553288295.5,286047001.0,N
1553288315.3,286047000.5,N
1553288335.1,286047000.2,N
1553288355.9,286047000.1,N
1553288375.7,286047000.5,N
1553288395.6,286046998.7,N
